• In United Kingdom
  • List of Countries
  • For 7 days
  • Water Temperature
  • Satellite Maps
  • Weather Map
  • Weather Widgets
  • user-avatar
    Login

    Hourly Weather Middlesbrough

    Today, 20 September, Thursday

    Time Temperature Precipitation Wind Pressure Humidity
    00:00 +10°C° 0 mm 7 mps 754 mmHg 73%
    01:00 +10°C° 0 mm 7 mps 754 mmHg 73%
    02:00 +10°C° 0 mm 7 mps 754 mmHg 72%
    03:00 +10°C° 0 mm 7 mps 755 mmHg 72%
    04:00 +10°C° 0 mm 7 mps 755 mmHg 73%
    05:00 +9°C° 0 mm 6 mps 755 mmHg 74%
    06:00 +9°C° 0 mm 6 mps 755 mmHg 75%
    07:00 +10°C° 0 mm 5 mps 755 mmHg 73%
    08:00 +12°C° 0 mm 5 mps 755 mmHg 70%
    09:00 +13°C° 0 mm 5 mps 755 mmHg 68%
    10:00 +13°C° 0 mm 5 mps 755 mmHg 66%
    11:00 +14°C° 0 mm 4 mps 754 mmHg 64%
    12:00 +15°C° 0 mm 4 mps 754 mmHg 62%
    13:00 +14°C° 0.8 mm 3 mps 753 mmHg 69%
    14:00 +13°C° 0.8 mm 3 mps 752 mmHg 76%
    15:00 +13°C° 0.8 mm 3 mps 751 mmHg 82%
    16:00 +12°C° 3.7 mm 3 mps 749 mmHg 86%
    17:00 +12°C° 3.7 mm 4 mps 748 mmHg 90%
    18:00 +12°C° 3.7 mm 4 mps 747 mmHg 94%
    19:00 +12°C° 2.1 mm 4 mps 746 mmHg 94%
    20:00 +12°C° 2.1 mm 5 mps 745 mmHg 94%
    21:00 +12°C° 2.1 mm 5 mps 744 mmHg 93%
    22:00 +12°C° 1.8 mm 5 mps 743 mmHg 93%
    23:00 +10°C° 1.8 mm 5 mps 743 mmHg 93%

    Tomorrow, 21 September, Friday

    Time Temperature Precipitation Wind Pressure Humidity
    00:00 +10°C° 1.8 mm 5 mps 742 mmHg 93%
    01:00 +9°C° 1.1 mm 7 mps 743 mmHg 91%
    02:00 +7°C° 1.1 mm 8 mps 743 mmHg 89%
    03:00 +6°C° 1.1 mm 9 mps 744 mmHg 87%
    04:00 +6°C° 0.5 mm 9 mps 745 mmHg 86%
    05:00 +6°C° 0.5 mm 8 mps 746 mmHg 85%
    06:00 +6°C° 0.5 mm 8 mps 747 mmHg 84%
    07:00 +7°C° 0 mm 8 mps 747 mmHg 80%
    08:00 +8°C° 0 mm 9 mps 748 mmHg 76%
    09:00 +10°C° 0 mm 9 mps 749 mmHg 72%
    10:00 +8°C° 0.6 mm 9 mps 749 mmHg 75%
    11:00 +8°C° 0.6 mm 9 mps 749 mmHg 78%
    12:00 +8°C° 0.6 mm 9 mps 749 mmHg 81%
    13:00 +10°C° 0.3 mm 9 mps 750 mmHg 78%
    14:00 +11°C° 0.3 mm 9 mps 751 mmHg 75%
    15:00 +12°C° 0.3 mm 8 mps 752 mmHg 72%
    16:00 +11°C° 0.1 mm 7 mps 753 mmHg 74%
    17:00 +10°C° 0.1 mm 7 mps 754 mmHg 77%
    18:00 +10°C° 0.1 mm 6 mps 755 mmHg 79%
    19:00 +9°C° 0 mm 6 mps 756 mmHg 80%
    20:00 +9°C° 0 mm 6 mps 756 mmHg 82%
    21:00 +8°C° 0 mm 7 mps 757 mmHg 83%
    22:00 +8°C° 0 mm 7 mps 757 mmHg 82%
    23:00 +8°C° 0 mm 7 mps 758 mmHg 81%

    Day after tomorrow, 22 September, Saturday

    Time Temperature Precipitation Wind Pressure Humidity
    00:00 +8°C° 0 mm 7 mps 758 mmHg 80%
    01:00 +6°C° 0 mm 7 mps 759 mmHg 80%
    02:00 +6°C° 0 mm 7 mps 759 mmHg 80%
    03:00 +6°C° 0 mm 7 mps 760 mmHg 79%
    04:00 +7°C° 0 mm 6 mps 760 mmHg 80%
    05:00 +7°C° 0 mm 6 mps 760 mmHg 81%
    06:00 +6°C° 0 mm 5 mps 761 mmHg 82%
    07:00 +8°C° 0 mm 5 mps 761 mmHg 78%
    08:00 +9°C° 0 mm 6 mps 761 mmHg 74%
    09:00 +10°C° 0 mm 6 mps 761 mmHg 70%
    10:00 +10°C° 0 mm 6 mps 761 mmHg 68%
    11:00 +11°C° 0 mm 6 mps 762 mmHg 65%
    12:00 +13°C° 0 mm 6 mps 762 mmHg 62%
    13:00 +13°C° 0 mm 5 mps 761 mmHg 63%
    14:00 +13°C° 0 mm 5 mps 761 mmHg 64%
    15:00 +13°C° 0 mm 4 mps 761 mmHg 65%
    16:00 +12°C° 0 mm 4 mps 761 mmHg 70%
    17:00 +11°C° 0 mm 3 mps 761 mmHg 74%
    18:00 +10°C° 0 mm 2 mps 761 mmHg 79%
    19:00 +10°C° 0.1 mm 2 mps 760 mmHg 82%
    20:00 +10°C° 0.1 mm 2 mps 760 mmHg 84%
    21:00 +10°C° 0.1 mm 1 mps 760 mmHg 87%
    22:00 +10°C° 0.2 mm 1 mps 760 mmHg 88%
    23:00 +10°C° 0.2 mm 1 mps 759 mmHg 89%

    23 September, Sunday

    Time Temperature Precipitation Wind Pressure Humidity
    00:00 +10°C° 0.2 mm 1 mps 759 mmHg 90%
    01:00 +9°C° 0.5 mm 2 mps 758 mmHg 90%
    02:00 +9°C° 0.5 mm 2 mps 758 mmHg 91%
    03:00 +9°C° 0.5 mm 3 mps 757 mmHg 91%
    04:00 +9°C° 1.1 mm 3 mps 757 mmHg 91%
    05:00 +7°C° 1.1 mm 4 mps 757 mmHg 91%
    06:00 +7°C° 1.1 mm 4 mps 756 mmHg 91%
    07:00 +8°C° 1.1 mm 5 mps 757 mmHg 90%
    08:00 +8°C° 1.1 mm 6 mps 757 mmHg 89%
    09:00 +8°C° 1.1 mm 7 mps 757 mmHg 88%
    10:00 +8°C° 0.9 mm 7 mps 758 mmHg 85%
    11:00 +9°C° 0.9 mm 8 mps 759 mmHg 82%
    12:00 +9°C° 0.9 mm 8 mps 760 mmHg 79%
    13:00 +9°C° 0.1 mm 8 mps 761 mmHg 75%
    14:00 +9°C° 0.1 mm 8 mps 761 mmHg 72%
    15:00 +10°C° 0.1 mm 8 mps 762 mmHg 68%
    16:00 +9°C° 0 mm 8 mps 763 mmHg 69%
    17:00 +8°C° 0 mm 7 mps 764 mmHg 70%
    18:00 +7°C° 0 mm 6 mps 765 mmHg 71%
    19:00 +7°C° 0 mm 6 mps 767 mmHg 72%
    20:00 +6°C° 0 mm 5 mps 768 mmHg 73%
    21:00 +6°C° 0 mm 5 mps 769 mmHg 74%
    22:00 +5°C° 0 mm 5 mps 769 mmHg 74%
    23:00 +5°C° 0 mm 4 mps 770 mmHg 74%

    24 September, Monday

    Time Temperature Precipitation Wind Pressure Humidity
    00:00 +5°C° 0 mm 4 mps 771 mmHg 74%
    01:00 +5°C° 0 mm 4 mps 771 mmHg 74%
    02:00 +5°C° 0 mm 4 mps 771 mmHg 74%
    03:00 +5°C° 0 mm 4 mps 772 mmHg 74%
    04:00 +5°C° 0 mm 4 mps 772 mmHg 76%
    05:00 +5°C° 0 mm 4 mps 773 mmHg 78%
    06:00 +5°C° 0 mm 4 mps 773 mmHg 79%
    07:00 +6°C° 0 mm 5 mps 773 mmHg 76%
    08:00 +8°C° 0 mm 6 mps 773 mmHg 72%
    09:00 +9°C° 0 mm 6 mps 774 mmHg 69%
    10:00 +10°C° 0 mm 6 mps 774 mmHg 66%
    11:00 +11°C° 0 mm 6 mps 774 mmHg 64%
    12:00 +13°C° 0 mm 6 mps 774 mmHg 61%
    13:00 +13°C° 0 mm 6 mps 774 mmHg 62%
    14:00 +12°C° 0 mm 7 mps 774 mmHg 63%
    15:00 +12°C° 0 mm 7 mps 774 mmHg 64%
    16:00 +11°C° 0 mm 6 mps 774 mmHg 68%
    17:00 +10°C° 0 mm 6 mps 774 mmHg 72%
    18:00 +9°C° 0 mm 5 mps 774 mmHg 77%
    19:00 +9°C° 0 mm 6 mps 774 mmHg 78%
    20:00 +8°C° 0 mm 6 mps 775 mmHg 80%
    21:00 +8°C° 0 mm 6 mps 775 mmHg 81%
    22:00 +8°C° 0 mm 6 mps 775 mmHg 82%
    23:00 +8°C° 0 mm 6 mps 775 mmHg 82%

    25 September, Tuesday

    Time Temperature Precipitation Wind Pressure Humidity
    00:00 +8°C° 0 mm 6 mps 775 mmHg 83%
    01:00 +8°C° 0 mm 5 mps 774 mmHg 83%
    02:00 +8°C° 0 mm 5 mps 774 mmHg 84%
    03:00 +8°C° 0 mm 5 mps 774 mmHg 84%
    04:00 +8°C° 0 mm 5 mps 774 mmHg 85%
    05:00 +8°C° 0 mm 5 mps 774 mmHg 85%
    06:00 +8°C° 0 mm 4 mps 774 mmHg 85%
    07:00 +9°C° 0 mm 5 mps 774 mmHg 83%
    08:00 +9°C° 0 mm 5 mps 774 mmHg 81%
    09:00 +10°C° 0 mm 5 mps 774 mmHg 80%
    10:00 +12°C° 0 mm 5 mps 774 mmHg 75%
    11:00 +13°C° 0 mm 5 mps 774 mmHg 71%
    12:00 +14°C° 0 mm 5 mps 774 mmHg 67%
    13:00 +14°C° 0 mm 5 mps 773 mmHg 65%
    14:00 +14°C° 0 mm 5 mps 773 mmHg 64%
    15:00 +14°C° 0 mm 5 mps 772 mmHg 63%
    16:00 +13°C° 0 mm 5 mps 772 mmHg 68%
    17:00 +12°C° 0 mm 4 mps 772 mmHg 74%
    18:00 +11°C° 0 mm 4 mps 771 mmHg 79%
    19:00 +10°C° 0 mm 4 mps 771 mmHg 81%
    20:00 +10°C° 0 mm 4 mps 771 mmHg 83%
    21:00 +9°C° 0 mm 5 mps 771 mmHg 84%
    22:00 +8°C° 0 mm 5 mps 771 mmHg 84%
    23:00 +8°C° 0 mm 5 mps 771 mmHg 84%
    Show more